This demonstration page uses our WeatherBlox Daily Observations layout. Learn more.

Left ArrowRight Arrow

34.02893, -84.19858

Hourly Observations for March 5, 2022

Temp ( °F °C ) Dew Point ( °F °C ) Humidity (%) Winds ( mph kmh ) Pressure ( in mb ) Visibility ( mi km ) Precip ( " mm )
12:53 am 00:53 Clear 57 13.9 41 5 55 55 VRB 5 7 30.29 1026 10 16 0.00 0.00
1:53 am 01:53 Clear 56 13.3 41 5 57 57 VRB 3 6 30.30 1026 10 16 0.00 0.00
2:53 am 02:53 Clear 54 12.2 41 5 62 62 VRB 3 6 30.29 1026 10 16 0.00 0.00
3:53 am 03:53 Mostly Clear 53 11.7 41 5 64 64 VRB 3 6 30.29 1026 10 16 0.00 0.00
4:53 am 04:53 Clear 52 11.1 42 5.6 69 69 VRB 3 6 30.31 1026 10 16 0.00 0.00
5:53 am 05:53 Clear 51 10.6 43 6.1 74 74 VRB 3 6 30.33 1027 10 16 0.00 0.00
6:53 am 06:53 Mostly Clear 50 10 45 7.2 83 83 VRB 6 9 30.33 1027 10 16 0.00 0.00
7:13 am 07:13 Cloudy 50 10 46 7.8 86 86 VRB 3 6 30.36 1028 7 11 0.00 0.00
7:53 am 07:53 Cloudy 51 10.6 48 8.9 89 89 VRB 3 6 30.36 1028 7 11 0.00 0.00
8:53 am 08:53 Cloudy with Mist and Fog 53 11.7 49 9.4 86 86 Calm 30.38 1029 6 10 0.00 0.00
9:53 am 09:53 Cloudy 56 13.3 49 9.4 77 77 Calm 30.39 1029 7 11 0.00 0.00
10:53 am 10:53 Hazy 61 16.1 50 10 67 67 VRB 7 11 30.37 1029 6 10 0.00 0.00
11:53 am 11:53 Sunny 65 18.3 51 10.6 61 61 VRB 6 9 30.36 1028 10 16 0.00 0.00
12:53 pm 12:53 Sunny 69 20.6 51 10.6 53 53 undefined N/A 30.32 1027 10 16 0.00 0.00
1:53 pm 13:53 Sunny 70 21.1 51 10.6 51 51 VRB 5 7 30.29 1026 10 16 0.00 0.00
2:53 pm 14:53 Sunny 73 22.8 50 10 44 44 SSE 9 15 30.25 1024 10 16 0.00 0.00
3:53 pm 15:53 Sunny 75 23.9 47 8.3 37 37 SSE 12 19 30.23 1024 10 16 0.00 0.00
4:53 pm 16:53 Sunny 75 23.9 43 6.1 32 32 S 12 19 30.22 1023 10 16 0.00 0.00
5:53 pm 17:53 Sunny 73 22.8 44 6.7 35 35 S 8 13 30.22 1023 10 16 0.00 0.00
6:53 pm 18:53 Clear 71 21.7 44 6.7 38 38 SSE 7 11 30.23 1024 10 16 0.00 0.00
7:53 pm 19:53 Clear 68 20 48 8.9 49 49 SE 6 9 30.25 1024 10 16 0.00 0.00
8:53 pm 20:53 Clear 66 18.9 50 10 56 56 SE 5 7 30.26 1025 10 16 0.00 0.00
9:53 pm 21:53 Clear 65 18.3 52 11.1 63 63 SE 5 7 30.27 1025 10 16 0.00 0.00
10:53 pm 22:53 Clear 64 17.8 53 11.7 68 68 SE 5 7 30.27 1025 10 16 0.00 0.00
11:53 pm 23:53 Clear 63 17.2 54 12.2 73 73 SSE 5 7 30.26 1025 10 16 0.00 0.00

Powered by AerisWeather